Flag for U.S.A. Weather past 2 weeks in Atlanta, Georgia, U.S.A.

Now
83 °F

Sunny.


Feels Like: 88 °F
Forecast: 75 / 94 °F
Wind: No wind

Location: Fulton County Airport-Brown Field

Current Time: Aug 21, 2014 at 8:33:55 PM

Latest Report: Aug 21, 2014 at 7:53 PM


Visibility: 10 mi

Pressure: 30.08 "Hg

Humidity: 68%

Dew point: 71 °F

Location of AtlantaLocation

Historic Weather in Atlanta — Graph

°F

Atlanta temperature yesterday

Maximum temperature yesterday: 89 °F (at 1:53 PM)
Minimum temperature yesterday: 71 °F (at 6:53 AM)
Average temperature yesterday: 77 °F

Past Weeks' High & Low Weather Summary

 TemperatureHumidityPressure
High94 °F (Aug 7, 3:53 PM)100% (Aug 10, 5:00 AM)30.14 "Hg (Aug 10, 5:00 AM)
Low61 °F (Aug 14, 5:53 AM)36% (Aug 13, 3:53 PM)29.82 "Hg (Aug 12, 4:53 PM)
Average77 °F76%29.98 "Hg
* Reported Aug 6 6:53 PM — Aug 21 6:53 PM, Atlanta, Weather by CustomWeather, © 2014

Note: Actual official high and low records may vary slightly from our data, if they occured in-between our weather recording intervals... More about our weather records

Advertising

Atlanta weather history for previous 24 hours

 ConditionsComfort  
Time TempWeatherWind HumidityBarometerVisibility
6:53 PM
Aug 21
83 °FSunny.7 mph65%30.08 "Hg10 mi
5:53 PM85 °FSunny.6 mph65%30.06 "Hg10 mi
4:53 PM91 °FSunny.8 mph50%30.07 "Hg10 mi
3:53 PM91 °FScattered clouds.7 mph52%30.08 "Hg10 mi
2:53 PM91 °FSunny.8 mph52%30.10 "Hg10 mi
1:53 PM89 °FSunny.10 mph57%30.12 "Hg10 mi
12:53 PM88 °FSunny.No wind59%30.13 "Hg10 mi
11:53 AM85 °FSunny.7 mph65%30.14 "Hg10 mi
10:53 AM81 °FSunny.5 mph67%30.13 "Hg10 mi
9:53 AM79 °FSunny.3 mph69%30.13 "Hg10 mi
8:53 AM74 °FSunny.3 mph82%30.13 "Hg10 mi
7:53 AM70 °FClear.No wind90%30.11 "Hg10 mi
6:53 AM69 °FClear.No wind93%30.10 "Hg10 mi
5:53 AM69 °FClear.No wind93%30.08 "Hg10 mi
4:53 AM69 °FClear.No wind93%30.07 "Hg10 mi
3:53 AM71 °FClear.No wind87%30.07 "Hg10 mi
2:53 AM71 °FClear.No wind87%30.06 "Hg10 mi
1:53 AM71 °FPassing clouds.No wind87%30.07 "Hg10 mi
12:53 AM72 °FClear.6 mph84%30.11 "Hg10 mi
11:53 PM
Aug 20
72 °FClear.5 mph81%30.12 "Hg10 mi
10:53 PM73 °FClear.3 mph81%30.11 "Hg10 mi
9:53 PM75 °FPassing clouds.No wind82%30.09 "Hg10 mi
8:53 PM77 °FLight rain. Broken clouds.No wind77%30.07 "Hg10 mi
Weather by CustomWeather, © 2014

See weather overviewHow to use our weather pages